Location: Augirein
(42.9320°N, 0.9181°E)
Time: 02:48:54
(UTC+00:00)

Cosmos 1943 Rocket - Pass Details

Date: 20 June 2021
Orbit: 813 x 843 km, 71.0° (Epoch: 04 August)

Event Time Altitude Azimuth Distance (km) Brightness Sun altitude
Rises 01:22:15 0° 322° (NW) 3,344 5.7 -20.8°
Reaches altitude 10° 01:25:09 10° 308° (NW) 2,409 4.8 -20.7°
Maximum altitude 01:29:16 22° 259° (W) 1,719 3.5 -20.4°
Enters shadow 01:29:23 22° 257° (WSW) 1,719 3.5 -20.4°
